www.pogodaiklimat.ru

Погода и климат >> Архив погоды >> Вьетнам >> Phu Lien


ПОГОДА в Phu Lien

  • Прогноз погоды в Phu Lien
  • Монитор погоды в Phu Lien
  • Климат города

АРХИВ ПОГОДЫ в Phu Lien

Время (UTC), дата Ветер
(напр.,м/с)
 
Видим.   Явления Облачность Т
(С)
Тd
(С)
f
(%)
Тe
(С)
Тes
(С)
Комфортность P
(гПа)
Po
(гПа)
Тmin
(С)
Tmax
(С)
R
(мм)
R24
(мм)
S
(см)
21 12.11 СВ 1 10 км слабый дождь 10/10 800 м
[Cu Sc]
+23.0 +23.0 100 +32 +32 очень
душно
1012.3 998.9
00 13.11 С 1 10 км слабый дождь 10/10 800 м
[Cu Sc]
+22.3 +22.3 100 +30 +30 очень
душно
1013.4 999.9 +22.0 0.7
03 13.11 штиль 0 10 км слабый дождь 10/10 600 м
[Cu Sc]
+23.1 +22.8 98 +32 +32 очень
душно
1014.2 1000.8
06 13.11 В 1 10 км {дождь} 9/9 600 м
[Cu Sc]
+25.4 +23.0 87 +34 +35 очень
душно
1011.2 997.9 0.4
09 13.11 ЮВ 2 10 км 8/8 800 м
[Cu Sc]
+25.2 +23.0 88 +34 +34 очень
душно
1010.8 997.5
12 13.11 ЮВ 2 10 км 10/10 600 м
[Cu Sc]
+23.5 +22.7 95 +31 +31 очень
душно
1011.2 997.8 0.9
15 13.11 СВ 1 10 км 10/10 600 м
[Cu Sc]
+22.8 +22.3 97 +31 +31 очень
душно
1013.0 999.5
18 13.11 штиль 0 10 км слабый дождь 10/10 800 м
[Cu Sc]
+22.7 +22.5 99 +31 +31 очень
душно
1011.9 998.4 0.3
21 13.11 ЮВ 1 10 км {дождь} 10/10 600 м
[Cu Sc]
+23.2 +22.9 98 +32 +32 очень
душно
1011.5 998.1
00 14.11 В 1 6000 м слабый дождь 10/10 450 м
[Cu Sc]
+22.7 +22.7 100 +31 +31 очень
душно
1012.9 999.4 +22.7 0.5
03 14.11 штиль 0 6000 м дымка {дождь} 10/10 800 м
[Cu Sc]
+25.1 +24.0 94 +35 +35 очень
душно
1013.8 1000.5
06 14.11 Ю 2 10 км {дождь} 8/8 800 м
[Cu med, cong]
+28.6 +23.6 74 +39 +41 очень
душно
1010.9 997.7 0.1
09 14.11 ЮВ 1 10 км слабый дождь 10/10 600 м
[Cu Sc]
+25.6 +23.2 87 +34 +34 очень
душно
1010.6 997.3
12 14.11 Ю 2 10 км {ливн. осадки} 9/9 600 м
[Cu Sc]
+24.6 +22.6 89 +32 +32 очень
душно
1011.9 998.5 +29.5 0.6
15 14.11 ЮВ 2 10 км 10/10 800 м
[Cu Sc]
+24.3 +23.2 94 +33 +33 очень
душно
1013.6 1000.2
18 14.11 ЮВ 2 10 км {ливн. осадки} 10/10 800 м
[Cu Sc]
+22.6 +22.4 99 +31 +31 очень
душно
1012.8 999.3 1
21 14.11 С 1 10 км 10/10 600 м
[Cu Sc]
+23.3 +23.1 99 +33 +33 очень
душно
1012.4 999.0
00 15.11 В 1 10 км {дождь} 9/9 800 м
[Cu Sc]
+23.8 +23.6 99 +32 +32 очень
душно
1013.6 1000.2 +23.0 2
03 15.11 ЮВ 2 10 км в посл. час дождь 10/8 600 м
[Cu med, cong As op]
+25.6 +25.3 98 +37 +37 очень
душно
1014.2 1000.9
06 15.11 Ю 2 10 км слабый дождь 10/6 600 м
[Frnb As op]
+24.1 +23.9 99 +33 +34 очень
душно
1012.1 998.7 2
09 15.11 Ю 3 10 км 9/9 600 м
[Cu Sc]
+24.9 +24.3 96 +34 +35 очень
душно
1011.8 998.4
12 15.11 ЮВ 2 10 км 8/8 800 м
[Cu Sc]
+23.8 +23.5 98 +32 +32 очень
душно
1012.9 999.5 +27.0
15 15.11 ЮВ 3 10 км 8/8 600 м
[Cu Sc]
+23.5 +23.5 100 +32 +32 очень
душно
1014.0 1000.6
18 15.11 СВ 2 10 км 8/8 800 м
[Cu Sc]
+23.2 +23.2 100 +33 +33 очень
душно
1012.9 999.5
21 15.11 ЮВ 2 10 км 8/8 1500 м
[Sc]
+23.6 +23.4 99 +32 +32 очень
душно
1012.2 998.8
00 16.11 ЮВ 2 10 км 3/3 1500 м
[Sc]
+23.8 +23.6 99 +32 +32 очень
душно
1013.9 1000.5 +23.2
03 16.11 СЗ 1 10 км 8/8 600 м
[Cu med, cong]
+28.2 +26.1 88 +42 +45 опасность
перегрева
1014.6 1001.4
06 16.11 Ю 1 10 км 8/8 800 м
[Cu Sc]
+26.5 +25.0 91 +38 +41 очень
душно
1011.9 998.6
09 16.11 Ю 3 10 км 5/5 600 м
[Cu med, cong]
+26.7 +23.3 82 +36 +37 очень
душно
1010.9 997.6
12 16.11 Ю 2 10 км 8/3 600 м
[Cu med, cong Cs]
+24.8 +24.8 100 +35 +35 очень
душно
1012.8 999.4 +29.3
15 16.11 ЮВ 1 10 км 3/3 1500 м
[Sc]
+24.6 +24.3 98 +34 +34 очень
душно
1014.2 1000.8
18 16.11 В 2 10 км 8/3 600 м
[Cu med, cong Cs]
+24.4 +24.4 100 +34 +34 очень
душно
1013.2 999.8
21 16.11 Ю 1 10 км 8/8 600 м
[Cu med, cong]
+24.2 +24.2 100 +33 +33 очень
душно
1012.4 999.0
00 17.11 В 2 10 км 8/3 1500 м
[Sc Cs]
+23.9 +23.7 99 +32 +33 очень
душно
1013.6 1000.2 +23.5
03 17.11 ЮВ 2 10 км 8/8 600 м
[Cu med, cong]
+27.2 +25.2 89 +39 +41 очень
душно
1015.0 1001.8
06 17.11 Ю 3 10 км 9/9 600 м
[Cu Sc]
+27.6 +25.6 89 +41 +42 опасность
перегрева
1012.7 999.5
09 17.11 ЮВ 2 10 км 8/8 600 м
[Cu Sc]
+26.8 +24.8 89 +38 +39 очень
душно
1011.7 998.4
12 17.11 ЮВ 2 10 км 9/9 1500 м
[Sc]
+24.2 +23.7 97 +33 +33 очень
душно
1013.6 1000.2 +29.0
15 17.11 СВ 2 10 км 6/6 800 м
[Cu med, cong]
+23.4 +23.4 100 +33 +33 очень
душно
1014.4 1001.0
18 17.11 СВ 2 10 км 9/9 1500 м
[Sc]
+23.5 +23.5 100 +32 +32 очень
душно
1013.1 999.7
21 17.11 С 2 10 км 9/9 800 м
[Cu Sc]
+23.1 +23.1 100 +32 +32 очень
душно
1013.1 999.7
00 18.11 СВ 1 6000 м дымка 6/3 1500 м
[Sc Cs]
+23.2 +23.2 100 +33 +33 очень
душно
1014.9 1001.5 +23.0
03 18.11 ЮВ 2 10 км 8/8 600 м
[Cu med, cong]
+26.6 +24.8 90 +38 +40 очень
душно
1016.3 1002.9
06 18.11 Ю 2 10 км 10/10 600 м
[Cu Sc]
+27.1 +24.5 86 +38 +38 очень
душно
1013.9 1000.7
09 18.11 Ю 2 10 км 8/8 600 м
[Cu med, cong]
+27.0 +25.0 89 +39 +39 очень
душно
1012.7 999.5
12 18.11 Ю 2 10 км 8/8 600 м
[Cu Sc]
+24.3 +24.0 98 +33 +33 очень
душно
1014.4 1001.0 +29.5
15 18.11 ЮВ 2 10 км 4/4 1500 м
[Sc]
+24.2 +23.9 98 +33 +33 очень
душно
1015.5 1002.1
18 18.11 ЮВ 2 10 км 9/9 800 м
[Cu Sc]
+23.7 +23.7 100 +32 +32 очень
душно
1014.9 1001.5
21 18.11 ЮВ 1 10 км 10/10 600 м
[Cu Sc]
+23.1 +22.9 99 +32 +32 очень
душно
1014.4 1001.0
00 19.11 В 1 10 км 9/9 600 м
[Cu Sc]
+22.7 +22.4 98 +31 +31 очень
душно
1016.5 1002.9 +22.5
03 19.11 В 1 10 км 9/9 600 м
[Cu Sc]
+25.1 +23.0 88 +33 +34 очень
душно
1018.1 1004.7
06 19.11 В 2 10 км 8/8 600 м
[Cu Sc]
+28.4 +24.0 77 +39 +42 очень
душно
1015.0 1001.8
09 19.11 ЮВ 2 10 км 9/9 600 м
[Cu Sc]
+24.0 +22.6 92 +31 +32 очень
душно
1014.3 1000.9
12 19.11 ЮВ 2 10 км 8/8 800 м
[Cu Sc]
+22.6 +21.8 95 +30 +30 очень
душно
1015.7 1002.2 +28.5
15 19.11 Ю 3 10 км 10/10 600 м
[Cu Sc]
+22.5 +21.4 94 +30 +30 очень
душно
1017.2 1003.6

 

Местоположение метеостанции Phu Lien (Вьетнам): широта 20.80 долгота 106.63 высота над уровнем моря 116 м.

В архиве по умолчанию представлена погода в Phu Lien за последнюю неделю. Архивные данные за месяц целиком и за предыдущие месяцы, начиная с января 2011 года, Вы можете получить, выбрав интересующий диапазон дат из раскрывающегося списка и нажав кнопку "Ввод!".


*Определитесь, кто Вы:
робот инопланетянин человек

Внимание! Время в таблицах - всемирное. Для получения местного времени необходимо прибавить поправку, которая в Phu Lien равна 7 ч.

Смотрите также архив погоды в соседних городах и на ближайших метеорологических станциях:

Погода в Nam Dinh (Вьетнам) (65 км)
Погода в Ha Noi (Вьетнам) (90 км)
Погода в Ha Dong (Вьетнам) (91 км)
Погода в Lang Son (Вьетнам) (115 км)
Погода в Bach Long Vi (Вьетнам) (135 км)
Погода в Thanh Hoa (Вьетнам) (147 км)
Погода в Mong Cai (Вьетнам) (160 км)
Погода в Bac Can (Вьетнам) (171 км)
Погода в Longzhou (Китай) (175 км)
Погода в Cao Bang (Вьетнам) (212 км)

Пояснения к столбцам:

Ветер - указаны скорость ветра в м/с - средняя за 10 мин, порывы в срок и между сроками (в фигурных скобках) и направление, откуда дует ветер: С - северный, СВ - северо-восточный, В - восточный, ЮВ - юго-восточный, Ю - южный, ЮЗ - юго-западный, З - западный, СЗ - северо-западный.
Видимость - горизонтальная дальность видимости в метрах или километрах. При видимости от 1 до 10 км при отсутствии осадков обычно наблюдается дымка, при ухудшении видимости до 1 км и менее - туман. В сухую погоду видимость может ухудшаться дымом, пылью или мглою.
Явления - указаны атмосферные явления, наблюдавшиеся в срок или в последний час перед сроком; фигурными скобками обозначены явления, наблюдавшиеся между сроками (за 1-3 часа до срока); квадратными скобками обозначены град или гололедные отложения с указанием их диаметра в мм.
Облачность - указаны через наклонную черту общая и нижняя облачность в баллах и высота нижней границы облаков в метрах; квадратными скобками обозначены формы облаков: Ci - перистые, Cs - перисто-слоистые, Cc - перисто-кучевые, Ac - высококучевые, As - высокослоистые, Sc - слоисто-кучевые, Ns - слоисто-дождевые, Cu - кучевые, Cb - кучево-дождевые. Подробнее классификацию облаков см. в Атласе облаков (PDF).
T - Температура воздуха - температура, измеренная на высоте 2 м над землей.
Td - Температура точки росы - температура, при понижении до которой содержащийся в воздухе водяной пар достигнет насыщения.
f - Относительная влажность воздуха - влажноcть воздуха, измеренная на высоте 2 м над землей.
Te - Эффективная температура - температура, которую ощущает одетый по сезону человек в тени. Характеристика душности погоды. При расчете учитывается влияние влажности воздуха и скорости ветра на теплоощущения человека.
Tes - Эффективная температура на солнце - температура, которую ощущает человек, с поправкой на солнечный нагрев. Характеристика знойности погоды. Зависит от высоты солнца над горизонтом, облачности и скорости ветра. Ночью, в пасмурную погоду, а также при ветре 12 м/с и более поправка равна нулю.
P - Атмосферное давление - приведенное к уровню моря атмосферное давление.
Po - Атмосферное давление - измеренное на уровне метеостанции атмосферное давление.
Tmin - Минимальная температура - минимум температуры воздуха на высоте 2 м над землей.
Tmax - Максимальная температура - максимум температуры воздуха на высоте 2 м над землей.
R - Количество осадков - Количество выпавших осадков за период времени, мм. При наведении курсора мыши на число - период времени, за который выпало указанное количество осадков.
R24 - Количество осадков - Количество выпавших осадков за 24 часа, мм.
S - Снежный покров - Высота снежного покрова, см. При наведении курсора мыши на число - состояние снежного покрова и степень покрытия местности в баллах.